Weather History for Medicine Lodge, KS

Change the Weather History Date:

Thursday, November 1, 2012

  Actual Average Record
Temperature  
Mean Temperature 59 °F 52 °F  
Max Temperature 80 °F 65 °F 86 °F (1990)
Min Temperature 38 °F 39 °F 22 °F (1899)
Degree Days  
Heating Degree Days 6 13  
Month to date heating degree days 6 13  
Since 1 July heating degree days 287 282  
Cooling Degree Days 0 0  
Month to date cooling degree days 0 0  
Year to date cooling degree days 2256 1769  
Growing Degree Days 8 (Base 50)    
Moisture  
Dew Point 35 °F    
Average Humidity 47    
Maximum Humidity 76    
Minimum Humidity 18    
Precipitation  
Precipitation 0.00 in 0.05 in 4.75 in (1998)
Month to date precipitation 0.00 0.05  
Year to date precipitation 16.94 25.34  
Snow  
Snow 0.00 in 0.00 in - ()
Month to date snowfall 0.0 0.0  
Since 1 July snowfall 0.0 0.0  
Since 1 September snowfall 0.0 0.0  
Snow Depth 0.00 in    
Sea Level Pressure  
Sea Level Pressure 29.96 in    
Wind  
Wind Speed 3 mph (ESE)    
Max Wind Speed 8 mph    
Max Gust Speed 11 mph    
T = Trace of Precipitation, MM = Missing Value Source: NWS Daily Summary

Daily Weather History Graph

Daily Weather History Graph

Search for Another Location

Airport:

Trip Planner

Search our weather history database for the weather conditions in past years. The results will help you decide how hot, cold, wet, or windy it might be!

Date:

Astronomy

Nov. 01, 2012 Rise Set
Actual Time 7:59 AM CDT 6:35 PM CDT
Civil Twilight 7:32 AM CDT 7:02 PM CDT
Nautical Twilight 7:01 AM CDT 7:33 PM CDT
Astronomical Twilight 6:31 AM CDT 8:03 PM CDT
Moon 8:36 PM CDT (11/1) 10:30 AM CDT (11/1)
Length of Visible Light 11h 30m
Length of Day
10h 36m
Waning Gibbous, 93% of the Moon is Illuminated
Nov 1
Waning Gibbous
Nov 6
Last Quarter
Nov 13
New
Nov 20
First Quarter
Nov 28
Full

Hourly Weather History & Observations

Time (CDT) Temp. Windchill Dew Point Humidity Pressure Visibility Wind Dir Wind Speed Gust Speed Precip Events Conditions
12:56 AM 54.0 °F - 36.0 °F 51% 30.00 in - East 5.8 mph - N/A   Unknown
1:56 AM 45.0 °F 42.6 °F 33.1 °F 63% 30.00 in - East 4.6 mph - N/A   Unknown
2:56 AM 43.0 °F 41.3 °F 33.1 °F 68% 30.00 in - NNE 3.5 mph - N/A   Unknown
3:56 AM 43.0 °F - 33.1 °F 68% 30.00 in - Calm Calm - N/A   Unknown
4:56 AM 42.1 °F 40.2 °F 33.1 °F 70% 30.00 in - North 3.5 mph - N/A   Unknown
5:56 AM 39.0 °F 35.7 °F 30.9 °F 73% 30.01 in - North 4.6 mph - N/A   Unknown
6:56 AM 37.9 °F - 30.9 °F 76% 30.01 in - Calm Calm - N/A   Unknown
7:56 AM 39.0 °F - 30.9 °F 73% 30.01 in - Calm Calm - N/A   Unknown
8:56 AM 42.1 °F - 32.0 °F 67% 30.03 in - Calm Calm - N/A   Unknown
9:56 AM 50.0 °F - 35.1 °F 57% 30.02 in - Calm Calm - N/A   Unknown
10:56 AM 57.9 °F - 37.0 °F 46% 30.02 in - Calm Calm - N/A   Unknown
11:56 AM 64.0 °F - 37.9 °F 38% 30.01 in - Calm Calm - N/A   Unknown
12:56 PM 71.1 °F - 39.0 °F 31% 29.98 in - Calm Calm - N/A   Unknown
1:56 PM 75.9 °F - 37.9 °F 25% 29.95 in - Variable 3.5 mph - N/A   Unknown
2:56 PM 78.1 °F - 36.0 °F 22% 29.92 in - Variable 3.5 mph - N/A   Unknown
3:56 PM 80.1 °F - 33.1 °F 18% 29.91 in - Variable 3.5 mph - N/A   Unknown
4:56 PM 80.1 °F - 34.0 °F 19% 29.90 in - Variable 4.6 mph - N/A   Unknown
5:56 PM 77.0 °F - 33.1 °F 20% 29.90 in - SSE 5.8 mph - N/A   Unknown
6:56 PM 71.1 °F - 35.1 °F 27% 29.91 in - SSE 5.8 mph - N/A   Unknown
7:56 PM 68.0 °F - 36.0 °F 31% 29.92 in - SSE 6.9 mph - N/A   Unknown
8:56 PM 66.0 °F - 37.0 °F 34% 29.92 in - SE 6.9 mph - N/A   Unknown
9:56 PM 63.0 °F - 37.9 °F 40% 29.90 in - ESE 6.9 mph - N/A   Unknown
10:56 PM 61.0 °F - 37.9 °F 42% 29.90 in - ESE 5.8 mph - N/A   Unknown
11:56 PM 59.0 °F - 39.0 °F 48% 29.88 in - SE 6.9 mph - N/A   Unknown